SES-3

Last updated on Thu Aug 13 2026 00:02:58 GMT+0000 (Coordinated Universal Time)

1 37748U 11035A 26224.55164138 -.00000120 00000+0 00000+0 0 9990 2 37748 1.4678 82.4115 0002371 77.9215 256.2419 1.00270972 55155
UTC large
Height (km)
Speed (km/s)
/
Latitude / Longitude
Inclination (degrees)
Orbital Period (minutes)
Azimuth
Elevation
Range (km)
Doppler Factor

Next 0 passes for location: London (51.5072 / 0.1276)

No passes found over London.
SES-3